UAL524 KSAN-KSFO

Flight info

Callsign UAL524
Flight time N/A
Altitude 36000
Route PADRZ2 IKAYE RIZIN SPLNT STOKD SERFR SERFR4
Aircraft B38M/M-SDE1FGHILORVWXY/HB1

Departure

Time 2026-05-05 04:36
Airport San Diego International Airport (KSAN)

Arrival

Time N/A
Airport San Francisco International Airport (KSFO)
Time Latitude Longitude Altitude Speed Heading
2026-05-05 03:53 32.73426 -117.20472 24 ft 0 kts 122°
2026-05-05 04:21 32.73432 -117.20485 23 ft 2 kts 117°
2026-05-05 04:21 32.73439 -117.20501 26 ft 2 kts 111°
2026-05-05 04:22 32.73443 -117.20519 25 ft 2 kts 98°
2026-05-05 04:22 32.73444 -117.20537 24 ft 2 kts 72°
2026-05-05 04:22 32.73436 -117.20552 27 ft 2 kts 32°
2026-05-05 04:22 32.73426 -117.20558 28 ft 1 kts
2026-05-05 04:23 32.73423 -117.20558 27 ft 0 kts
2026-05-05 04:28 32.73434 -117.20557 24 ft 4 kts
2026-05-05 04:28 32.73478 -117.20544 21 ft 9 kts 29°
2026-05-05 04:28 32.73533 -117.20481 20 ft 11 kts 49°
2026-05-05 04:28 32.73581 -117.20407 22 ft 11 kts 64°
2026-05-05 04:29 32.73585 -117.20334 23 ft 8 kts 104°
2026-05-05 04:29 32.73567 -117.20262 28 ft 11 kts 107°
2026-05-05 04:29 32.73545 -117.20176 26 ft 10 kts 107°
2026-05-05 04:29 32.73525 -117.20092 28 ft 11 kts 104°
2026-05-05 04:30 32.73504 -117.20002 26 ft 12 kts 105°
2026-05-05 04:30 32.73478 -117.19893 28 ft 17 kts 106°
2026-05-05 04:30 32.73441 -117.19743 27 ft 21 kts 106°
2026-05-05 04:30 32.73400 -117.19571 28 ft 22 kts 106°
2026-05-05 04:31 32.73355 -117.19387 27 ft 25 kts 106°
2026-05-05 04:31 32.73304 -117.19180 27 ft 26 kts 104°
2026-05-05 04:31 32.73255 -117.18977 27 ft 25 kts 106°
2026-05-05 04:31 32.73207 -117.18777 35 ft 23 kts 106°
2026-05-05 04:32 32.73161 -117.18589 31 ft 25 kts 106°
2026-05-05 04:32 32.73114 -117.18399 29 ft 23 kts 106°
2026-05-05 04:32 32.73080 -117.18254 31 ft 18 kts 106°
2026-05-05 04:32 32.73041 -117.18096 28 ft 21 kts 106°
2026-05-05 04:33 32.73000 -117.17928 28 ft 21 kts 106°
2026-05-05 04:33 32.72959 -117.17770 25 ft 9 kts 107°
2026-05-05 04:33 32.72951 -117.17702 25 ft 7 kts 86°
2026-05-05 04:33 32.72963 -117.17646 28 ft 9 kts 68°
2026-05-05 04:34 32.73017 -117.17617 30 ft 9 kts 331°
2026-05-05 04:34 32.73042 -117.17677 29 ft 7 kts 287°
2026-05-05 04:34 32.73044 -117.17685 29 ft 0 kts 287°
2026-05-05 04:35 32.73067 -117.17773 29 ft 42 kts 287°
2026-05-05 04:35 32.73234 -117.18461 29 ft 127 kts 285°
2026-05-05 04:36 32.73532 -117.19694 171 ft 173 kts 286°
2026-05-05 04:36 32.73927 -117.21009 919 ft 156 kts 290°
2026-05-05 04:36 32.74473 -117.22108 1389 ft 157 kts 300°
2026-05-05 04:36 32.75112 -117.23198 1572 ft 164 kts 300°
2026-05-05 04:37 32.75759 -117.24341 1741 ft 176 kts 299°
2026-05-05 04:37 32.76470 -117.25622 2063 ft 191 kts 300°
2026-05-05 04:37 32.77213 -117.26951 2579 ft 194 kts 299°
2026-05-05 04:37 32.77953 -117.28276 3102 ft 196 kts 300°
2026-05-05 04:38 32.78704 -117.29624 3659 ft 196 kts 300°
2026-05-05 04:38 32.79462 -117.30988 4112 ft 202 kts 301°
2026-05-05 04:38 32.80325 -117.32367 4404 ft 215 kts 306°
2026-05-05 04:38 32.81261 -117.33821 4632 ft 228 kts 304°
2026-05-05 04:39 32.82240 -117.35379 4773 ft 242 kts 304°
2026-05-05 04:39 32.83236 -117.36922 5141 ft 233 kts 305°
2026-05-05 04:39 32.84233 -117.38461 5501 ft 234 kts 305°
2026-05-05 04:39 32.85208 -117.39969 6135 ft 224 kts 304°
2026-05-05 04:40 32.86108 -117.41364 6951 ft 209 kts 304°
2026-05-05 04:40 32.86987 -117.42732 7770 ft 208 kts 303°
2026-05-05 04:40 32.87861 -117.44091 8615 ft 206 kts 303°
2026-05-05 04:40 32.88726 -117.45434 9481 ft 203 kts 303°
2026-05-05 04:41 32.89577 -117.46754 10310 ft 199 kts 302°
2026-05-05 04:41 32.90407 -117.48043 11090 ft 193 kts 301°
2026-05-05 04:41 32.91207 -117.49286 11887 ft 185 kts 301°
2026-05-05 04:41 32.91978 -117.50485 12592 ft 182 kts 300°
2026-05-05 04:42 32.92769 -117.51728 12962 ft 199 kts 300°
2026-05-05 04:42 32.93673 -117.53153 12982 ft 233 kts 301°
2026-05-05 04:42 32.94709 -117.54770 12995 ft 265 kts 302°
2026-05-05 04:42 32.95897 -117.56614 12998 ft 297 kts 303°
2026-05-05 04:43 32.97216 -117.58664 12996 ft 323 kts 303°
2026-05-05 04:43 32.98584 -117.60786 12982 ft 324 kts 303°
2026-05-05 04:43 32.99958 -117.62928 12976 ft 326 kts 303°
2026-05-05 04:43 33.01334 -117.65081 12968 ft 327 kts 303°
2026-05-05 04:44 33.02712 -117.67237 12966 ft 327 kts 303°
2026-05-05 04:44 33.04093 -117.69395 12965 ft 328 kts 303°
2026-05-05 04:44 33.05438 -117.71542 12966 ft 327 kts 301°
2026-05-05 04:44 33.06180 -117.74008 13010 ft 314 kts 279°
2026-05-05 04:45 33.07188 -117.76376 12973 ft 331 kts 309°
2026-05-05 04:45 33.09053 -117.78012 12973 ft 336 kts 326°
2026-05-05 04:45 33.11160 -117.79266 12961 ft 339 kts 330°
2026-05-05 04:45 33.13286 -117.80480 12964 ft 339 kts 328°
2026-05-05 04:46 33.15314 -117.81888 12963 ft 336 kts 321°
2026-05-05 04:46 33.17115 -117.83634 12964 ft 332 kts 313°
2026-05-05 04:46 33.18765 -117.85508 12962 ft 332 kts 312°
2026-05-05 04:46 33.20396 -117.87454 12962 ft 331 kts 311°
2026-05-05 04:47 33.22044 -117.89372 12965 ft 331 kts 312°
2026-05-05 04:47 33.23691 -117.91295 12963 ft 331 kts 311°
2026-05-05 04:47 33.25316 -117.93243 12963 ft 331 kts 311°
2026-05-05 04:47 33.26939 -117.95195 12964 ft 331 kts 311°
2026-05-05 04:48 33.28568 -117.97138 12963 ft 331 kts 311°
2026-05-05 04:48 33.30199 -117.99080 12975 ft 332 kts 311°
2026-05-05 04:48 33.31815 -118.01010 13547 ft 334 kts 311°
2026-05-05 04:48 33.33464 -118.02984 14320 ft 337 kts 311°
2026-05-05 04:49 33.35135 -118.04983 15014 ft 342 kts 310°
2026-05-05 04:49 33.36825 -118.07006 15695 ft 346 kts 310°
2026-05-05 04:49 33.38537 -118.09055 16368 ft 350 kts 310°
2026-05-05 04:49 33.40270 -118.11132 17016 ft 355 kts 310°
2026-05-05 04:50 33.42024 -118.13235 17651 ft 359 kts 310°
2026-05-05 04:50 33.43800 -118.15366 18285 ft 364 kts 309°
2026-05-05 04:50 33.45573 -118.17494 18829 ft 368 kts 309°
2026-05-05 04:50 33.47387 -118.19672 19393 ft 371 kts 309°
2026-05-05 04:51 33.49215 -118.21869 19946 ft 374 kts 309°
2026-05-05 04:51 33.51057 -118.24085 20496 ft 377 kts 309°
2026-05-05 04:51 33.52913 -118.26318 21059 ft 380 kts 309°
2026-05-05 04:51 33.54784 -118.28572 21600 ft 382 kts 309°
2026-05-05 04:52 33.56665 -118.30838 22148 ft 385 kts 309°
2026-05-05 04:52 33.58562 -118.33125 22660 ft 388 kts 309°
2026-05-05 04:52 33.60449 -118.35402 23169 ft 391 kts 309°
2026-05-05 04:52 33.62374 -118.37726 23682 ft 394 kts 309°
2026-05-05 04:53 33.64312 -118.40068 24095 ft 397 kts 308°
2026-05-05 04:53 33.66262 -118.42426 24494 ft 400 kts 308°
2026-05-05 04:53 33.68227 -118.44803 24918 ft 402 kts 307°
2026-05-05 04:53 33.70205 -118.47198 25328 ft 405 kts 307°
2026-05-05 04:54 33.72195 -118.49609 25734 ft 408 kts 307°
2026-05-05 04:54 33.74198 -118.52038 26154 ft 410 kts 306°
2026-05-05 04:54 33.76215 -118.54485 26548 ft 413 kts 306°
2026-05-05 04:54 33.78215 -118.56914 26944 ft 416 kts 306°
2026-05-05 04:55 33.80256 -118.59393 27349 ft 419 kts 305°
2026-05-05 04:55 33.82310 -118.61890 27745 ft 421 kts 305°
2026-05-05 04:55 33.84375 -118.64403 28137 ft 424 kts 304°
2026-05-05 04:55 33.86456 -118.66938 28565 ft 427 kts 304°
2026-05-05 04:56 33.88545 -118.69478 28953 ft 429 kts 304°
2026-05-05 04:56 33.90646 -118.72043 29334 ft 431 kts 304°
2026-05-05 04:56 33.92754 -118.74619 29730 ft 434 kts 304°
2026-05-05 04:56 33.94851 -118.77179 30091 ft 436 kts 304°
2026-05-05 04:57 33.96989 -118.79790 30398 ft 439 kts 304°
2026-05-05 04:57 33.99139 -118.82419 30699 ft 442 kts 304°
2026-05-05 04:57 34.01300 -118.85066 31003 ft 444 kts 304°
2026-05-05 04:57 34.03472 -118.87727 31312 ft 447 kts 304°
2026-05-05 04:58 34.05660 -118.90409 31638 ft 450 kts 303°
2026-05-05 04:58 34.07859 -118.93106 31988 ft 452 kts 303°
2026-05-05 04:58 34.10067 -118.95820 32355 ft 455 kts 304°
2026-05-05 04:58 34.12285 -118.98542 32777 ft 454 kts 305°
2026-05-05 04:59 34.14348 -119.01321 33211 ft 445 kts 298°
2026-05-05 04:59 34.16047 -119.04390 33656 ft 438 kts 292°
2026-05-05 04:59 34.17653 -119.07515 34041 ft 438 kts 292°
2026-05-05 04:59 34.19267 -119.10637 34407 ft 438 kts 292°
2026-05-05 05:00 34.20881 -119.13761 34767 ft 438 kts 292°
2026-05-05 05:00 34.22488 -119.16888 35132 ft 438 kts 292°
2026-05-05 05:00 34.24096 -119.20012 35505 ft 438 kts 292°
2026-05-05 05:00 34.25704 -119.23138 35880 ft 438 kts 294°
2026-05-05 05:01 34.27312 -119.26268 36047 ft 438 kts 294°
2026-05-05 05:01 34.30485 -119.32452 36037 ft 434 kts 294°
2026-05-05 05:02 34.33661 -119.38659 36031 ft 434 kts 294°
2026-05-05 05:02 34.36837 -119.44870 36028 ft 434 kts 294°
2026-05-05 05:03 34.40008 -119.51086 36036 ft 434 kts 295°
2026-05-05 05:03 34.41780 -119.54085 36065 ft 446 kts 306°
2026-05-05 05:03 34.43927 -119.56745 36035 ft 447 kts 308°
2026-05-05 05:04 34.48327 -119.62089 36030 ft 448 kts 308°
2026-05-05 05:04 34.52675 -119.67480 36030 ft 448 kts 308°
2026-05-05 05:05 34.57056 -119.72857 36032 ft 448 kts 308°
2026-05-05 05:05 34.61386 -119.78218 36030 ft 447 kts 308°
2026-05-05 05:06 34.65747 -119.83606 36048 ft 448 kts 308°
2026-05-05 05:06 34.70106 -119.89007 36041 ft 447 kts 308°
2026-05-05 05:07 34.74460 -119.94414 36053 ft 449 kts 310°
2026-05-05 05:07 34.78800 -119.99802 36053 ft 449 kts 310°
2026-05-05 05:08 34.83160 -120.05231 36062 ft 449 kts 310°
2026-05-05 05:08 34.87530 -120.10679 36062 ft 449 kts 310°
2026-05-05 05:09 34.91887 -120.16120 36071 ft 449 kts 311°
2026-05-05 05:09 34.96221 -120.21541 36072 ft 450 kts 311°
2026-05-05 05:10 35.00584 -120.27007 36081 ft 450 kts 311°
2026-05-05 05:10 35.04949 -120.32484 36063 ft 449 kts 311°
2026-05-05 05:11 35.09347 -120.37910 36071 ft 451 kts 314°
2026-05-05 05:11 35.13926 -120.43058 36075 ft 450 kts 315°
2026-05-05 05:12 35.18543 -120.48222 36070 ft 450 kts 315°
2026-05-05 05:12 35.23154 -120.53399 36070 ft 450 kts 315°
2026-05-05 05:13 35.27776 -120.58595 36070 ft 451 kts 316°
2026-05-05 05:13 35.32367 -120.63762 36070 ft 452 kts 315°
2026-05-05 05:14 35.36989 -120.68976 36070 ft 452 kts 315°
2026-05-05 05:14 35.41612 -120.74197 36070 ft 453 kts 316°
2026-05-05 05:15 35.46241 -120.79435 36071 ft 453 kts 316°
2026-05-05 05:15 35.51060 -120.84330 36072 ft 454 kts 321°
2026-05-05 05:16 35.56096 -120.89005 36076 ft 454 kts 322°
2026-05-05 05:16 35.61135 -120.93678 36069 ft 454 kts 322°
2026-05-05 05:17 35.66163 -120.98361 36053 ft 452 kts 322°
2026-05-05 05:17 35.71134 -121.02988 36052 ft 451 kts 322°
2026-05-05 05:18 35.76132 -121.07654 36054 ft 451 kts 323°
2026-05-05 05:18 35.81129 -121.12322 36052 ft 451 kts 323°
2026-05-05 05:19 35.86123 -121.16999 36055 ft 451 kts 323°
2026-05-05 05:19 35.91084 -121.21650 36055 ft 451 kts 323°
2026-05-05 05:20 35.96077 -121.26339 36061 ft 450 kts 323°
2026-05-05 05:20 36.01058 -121.31025 36065 ft 450 kts 323°
2026-05-05 05:21 36.06041 -121.35719 36065 ft 450 kts 324°
2026-05-05 05:21 36.11240 -121.39896 36068 ft 448 kts 329°
2026-05-05 05:22 36.16517 -121.44018 36077 ft 448 kts 329°
2026-05-05 05:22 36.21796 -121.48134 36083 ft 448 kts 329°
2026-05-05 05:23 36.27067 -121.52265 36081 ft 449 kts 329°
2026-05-05 05:23 36.32292 -121.56357 36085 ft 446 kts 329°
2026-05-05 05:24 36.37539 -121.60477 36086 ft 446 kts 329°
2026-05-05 05:24 36.42785 -121.64602 36078 ft 446 kts 329°
2026-05-05 05:25 36.48018 -121.68722 36080 ft 445 kts 330°
2026-05-05 05:25 36.53248 -121.72849 36081 ft 445 kts 329°
2026-05-05 05:26 36.58440 -121.76956 36084 ft 445 kts 329°
2026-05-05 05:26 36.63660 -121.81092 36078 ft 444 kts 330°
2026-05-05 05:27 36.68868 -121.85221 36067 ft 444 kts 330°
2026-05-05 05:27 36.76980 -121.90396 36073 ft 438 kts 349°
2026-05-05 05:28 36.82927 -121.91821 36084 ft 435 kts 352°
2026-05-05 05:28 36.88839 -121.93531 36071 ft 436 kts 349°
2026-05-05 05:29 36.94753 -121.95195 36067 ft 436 kts 348°
2026-05-05 05:29 37.00534 -121.97394 36064 ft 437 kts 346°
2026-05-05 05:30 37.06343 -121.99651 36062 ft 437 kts 346°
2026-05-05 05:30 37.12155 -122.01929 36061 ft 437 kts 346°
2026-05-05 05:31 37.17960 -122.04195 36044 ft 437 kts 346°
2026-05-05 05:31 37.23762 -122.06471 36040 ft 437 kts 346°
2026-05-05 05:32 37.29527 -122.08734 36073 ft 437 kts 346°
2026-05-05 05:32 37.35321 -122.11019 36070 ft 436 kts 346°
2026-05-05 05:33 37.41117 -122.13306 36061 ft 436 kts 346°
2026-05-05 05:33 37.46912 -122.15596 36061 ft 436 kts 346°
2026-05-05 05:34 37.52663 -122.17875 36069 ft 436 kts 346°
2026-05-05 05:34 37.58442 -122.20170 36070 ft 435 kts 346°
2026-05-05 05:35 37.64221 -122.22471 36087 ft 435 kts 346°
2026-05-05 05:35 37.69996 -122.24776 36095 ft 435 kts 346°
2026-05-05 05:36 37.75756 -122.27082 36092 ft 434 kts 346°
2026-05-05 05:36 37.81476 -122.29376 36089 ft 434 kts 346°
2026-05-05 05:37 37.87236 -122.31691 36060 ft 434 kts 347°
2026-05-05 05:37 37.92980 -122.34006 36059 ft 433 kts 347°
2026-05-05 05:38 37.98719 -122.36324 36038 ft 432 kts 347°
2026-05-05 05:38 38.04414 -122.38631 36038 ft 433 kts 347°
2026-05-05 05:39 38.10144 -122.40957 36045 ft 433 kts 347°
2026-05-05 05:39 38.15879 -122.43290 36045 ft 433 kts 347°
2026-05-05 05:40 38.21611 -122.45627 36050 ft 433 kts 347°
2026-05-05 05:40 38.27289 -122.47950 36045 ft 431 kts 347°
2026-05-05 05:41 38.32997 -122.50289 36040 ft 431 kts 347°
2026-05-05 05:41 38.38706 -122.52633 36034 ft 431 kts 347°
2026-05-05 05:42 38.44388 -122.54975 36026 ft 427 kts 347°
2026-05-05 05:42 38.50007 -122.57299 36017 ft 427 kts 347°
2026-05-05 05:43 38.55659 -122.59641 36016 ft 427 kts 347°
2026-05-05 05:43 38.61299 -122.61986 36014 ft 425 kts 347°
2026-05-05 05:44 38.66917 -122.64331 36012 ft 424 kts 348°
2026-05-05 05:44 38.72538 -122.66682 36018 ft 425 kts 347°
2026-05-05 05:45 38.78118 -122.69021 36012 ft 425 kts 348°
2026-05-05 05:45 38.83730 -122.71380 36018 ft 425 kts 348°
2026-05-05 05:46 38.89350 -122.73745 36024 ft 425 kts 348°
2026-05-05 05:46 38.94970 -122.76116 36008 ft 426 kts 348°
2026-05-05 05:47 39.00559 -122.78478 36015 ft 426 kts 348°
2026-05-05 05:47 39.06185 -122.80859 36017 ft 426 kts 348°